Main page
METAR-TAF:

METAR-TAF

Airports :

RAF Boulmer

Boulmer, England

latitude: 55-25-19N, longitude: 1-36-12W, elevation: 24 m

Current weather observation

The report was made 1 hour and 2 minutes ago, at 21:50 UTC
Wind 14 kt from the East/Southeast
Temperature 7°C
Humidity 76%
Pressure 1003 hPa
Visibility 10 km or more

METAR: EGQM 212150Z AUTO 11014KT 9999 FEW028/// SCT038/// BKN049/// 07/03 Q1003

Time: 22:52 (22:52 UTC)


TAF: missing

Weather observations and forecasts of more than 4000 airports (METAR and TAF reports).

The available stations are represented by yellow and red dots on the map.

Hover mouse over dot to see the name of the station.

Then click to see weather observations and forecasts.

To change the map : click on the green buttons with a black cross to zoom in, on the green button with a dash to zoom out, or on the green arrows for adjacent maps.


METAR-TAF: